Welcome to the New NWS' Forecast!
Most changes are behind the scenes, but click here for differences you might notice.

Regional Weather Roundup (RWR)

Issued by National Weather Service (NWS)

                            
682 
ASUS46 KSEW 151710
RWRWA 

WASHINGTON REGIONAL WEATHER ROUNDUP
NATIONAL WEATHER SERVICE SEATTLE WA
1000 AM PDT SUN JUL 15 2018

NOTE:"FAIR" INDICATES FEW OR NO CLOUDS BELOW 12,000 FEET WITH NO 
SIGNIFICANT WEATHER AND/OR OBSTRUCTIONS TO VISIBILITY.

WAZ507-509-555>559-151800-
SEATTLE, TACOMA, EVERETT, AND VICINITY
  
CITY           SKY/WX    TMP DP  RH WIND       PRES   REMARKS
EVERETT        SUNNY     71  53  52 NW9       30.06S                  
BOEING FIELD   SUNNY     76  51  41 N7        30.02F                  
RENTON         SUNNY     76  55  48 NW9       30.02F                  
SEATAC AIRPORT MOSUNNY   78  53  41 N12       30.04F                  
JBLM-MCCHORD   SUNNY     78  57  48 N9        30.03F                  
PUYALLUP       FAIR      81  55  41 VRB5      30.04S                  
BREMERTON      SUNNY     76  51  41 NE9       30.04F                  
JBLM-FT LEWIS  SUNNY     77  56  47 N12       30.02F                  
TACOMA NARROWS SUNNY     72  49  44 NE7       30.03F                  
$$
 
WAZ001-503-506-510-514-515-151800-
NORTH INTERIOR
  
CITY           SKY/WX    TMP DP  RH WIND       PRES   REMARKS
BELLINGHAM     SUNNY     73  56  54 NW3       30.04F                  
FRIDAY HARBOR  SUNNY     74  51  44 N9        30.06S                  
EASTSOUND      SUNNY     66  57  72 NW7       30.05S                  
PORT ANGELES   SUNNY     76  45  33 E8        30.07S                  
EDIZ HOOK      FAIR      62  50  63 E5        30.05F                  
PORT TOWNSEND  FAIR      75  52  43 NW8       30.05F                  
NAS WHIDBEY    MOSUNNY   68  50  52 W6        30.09S                  
ARLINGTON      SUNNY     75  55  49 NW5       30.04F                  
BURLINGTON     SUNNY     73  57  56 CALM      30.04F                  
$$
 
WAZ020-022-039-040-504-511-512-151800-
SOUTHWEST INTERIOR
  
CITY           SKY/WX    TMP DP  RH WIND       PRES   REMARKS
SHELTON        SUNNY     77  50  38 SE6       30.01F                  
OLYMPIA        SUNNY     76  53  44 N7        30.03F                  
CHEHALIS       FAIR      79  57  47 N8        30.01F                  
KELSO          SUNNY     78  56  46 N9        29.99F                  
VANCOUVER      SUNNY     78  56  46 W8        29.97F                  
SCAPPOOSE, OR  SUNNY     81  55  40 N8        29.96F                  
PORTLAND, OR   MOSUNNY   78  55  44 NW8       29.97F                  
$$
 
WAZ021-516-517-151800-
WASHINGTON COAST
  
CITY           SKY/WX    TMP DP  RH WIND       PRES   REMARKS
FORKS          SUNNY     74  52  46 CALM      30.03F                  
HOQUIAM        SUNNY     69  61  75 S5        30.03S                  
ASTORIA, OR    SUNNY     70  63  78 CALM      29.99F                  
$$
 
WAZ019-023-024-040-567>569-151800-
CASCADE MOUNTAINS AND COLUMBIA GORGE
  
CITY           SKY/WX    TMP DP  RH WIND       PRES   REMARKS
STAMPEDE PASS  NOT AVBL                                               
TROUTDALE, OR  SUNNY     76  59  55 VRB3      29.97F                  
HOOD RIVER, OR SUNNY     77  50  38 CALM      30.01S                  
THE DALLES, OR SUNNY     81  50  33 VRB3      29.98F                  
$$

WAZ026-027-041>044-520-521-151800-
EAST SLOPES
  
CITY           SKY/WX    TMP DP  RH WIND       PRES   REMARKS
OMAK           SUNNY     77  41  27 N17       30.08F                  
WENATCHEE      SUNNY     75  41  29 W5        30.06F                  
ELLENSBURG     SUNNY     76  48  37 VRB3      30.07F                  
YAKIMA         SUNNY     82  50  32 NW5       30.03F                  
SUNNYSIDE ARPT SUNNY     77  51  40 CALM      30.02F                  
YAKIMA TC        N/A     82  41  23 W5        30.02F                  
$$

WAZ028-034-035-151800-
COLUMBIA BASIN
  
CITY           SKY/WX    TMP DP  RH WIND       PRES   REMARKS
EPHRATA        SUNNY     86  26  11 NE7G16    30.04F                  
MOSES LAKE     SUNNY     83  33  16 N7        30.05F                  
PASCO          SUNNY     81  47  30 N8        30.01F                  
RICHLAND ARPT  SUNNY     79  43  27 SE3       30.01F                  
HERMISTON, OR  SUNNY     85  48  27 N6        30.00F                  
$$

WAZ036>038-151800-
NORTHEAST WASHINGTON
  
CITY           SKY/WX    TMP DP  RH WIND       PRES   REMARKS
SPOKANE GEIGER MOSUNNY   75  35  23 E3        30.11S                  
SPOKANE FELTS  SUNNY     73  39  29 CALM      30.10F                  
FAIRCHILD AFB  NOT AVBL                                               
COEURDALENE,ID SUNNY     76  41  28 NE9       30.11F                  
DEER PARK      SUNNY     76  36  23 VRB6      30.11S                  
$$

WAZ029>033-151800-
SOUTHEAST WASHINGTON
  
CITY           SKY/WX    TMP DP  RH WIND       PRES   REMARKS
PULLMAN        SUNNY     80  44  27 CALM      30.11S                  
LEWISTON, ID   SUNNY     78  49  35 N6        30.06F                  
WALLA WALLA    SUNNY     80  36  20 SW6       30.03F                  
PENDLETON, OR  SUNNY     82  40  22 CALM      30.03F                  
$$